This is the latest recevied weather packets stored in our database for station/object IW2DGQ-3. If no packets are shown the sender has not sent any weather packets the latest 10 day(s).
| Time | Temp. | Humidity | Pressure | Rain* | Wind** | Luminosity | Snow |
|---|---|---|---|---|---|---|---|
| 1777648151 | 21.67° C | 23% | 1026.6 hPa | - | - | - | - |
| 1777646947 | 21.67° C | 22% | 1026.7 hPa | - | - | - | - |
| 1777645744 | 21.67° C | 22% | 1026.9 hPa | - | - | - | - |
| 1777644540 | 21.67° C | 23% | 1027 hPa | - | - | - | - |
| 1777643337 | 22.22° C | 22% | 1027.1 hPa | - | - | - | - |
| 1777642133 | 22.22° C | 23% | 1027.4 hPa | - | - | - | - |
| 1777640930 | 21.67° C | 22% | 1027.7 hPa | - | - | - | - |
| 1777639726 | 21.67° C | 22% | 1028 hPa | - | - | - | - |
| 1777638522 | 21.67° C | 23% | 1027.9 hPa | - | - | - | - |
| 1777637319 | 21.11° C | 22% | 1028.1 hPa | - | - | - | - |
| 1777636115 | 21.67° C | 23% | 1028.2 hPa | - | - | - | - |
| 1777634912 | 21.11° C | 23% | 1028.5 hPa | - | - | - | - |
| 1777633709 | 21.11° C | 23% | 1028.6 hPa | - | - | - | - |
| 1777631301 | 20.56° C | 26% | 1028.9 hPa | - | - | - | - |
| 1777630098 | 20° C | 26% | 1029.1 hPa | - | - | - | - |
| 1777628894 | 20° C | 24% | 1029.2 hPa | - | - | - | - |
| 1777625284 | 24.44° C | 24% | 1029.4 hPa | - | - | - | - |
| 1777624080 | 23.33° C | 24% | 1029.3 hPa | - | - | - | - |
| 1777622877 | 26.11° C | 22% | 1029.1 hPa | - | - | - | - |
| 1777621673 | 26.11° C | 21% | 1029.1 hPa | - | - | - | - |
| 1777620470 | 27.22° C | 25% | 1029.1 hPa | - | - | - | - |
| 1777618063 | 26.11° C | 27% | 1028.9 hPa | - | - | - | - |
| 1777616859 | 25° C | 29% | 1028.6 hPa | - | - | - | - |
| 1777615656 | 25° C | 33% | 1028.8 hPa | - | - | - | - |
| 1777614452 | 23.89° C | 39% | 1028.6 hPa | - | - | - | - |
* Rain since midnight (hover to see other rain measurements)
** Current wind speed in m/s (hover to see current wind gust speed)